Location: Contre
(49.7477°N, 2.0963°E)
Time: 10:37:58
(UTC+00:00)

SJ-6B - Pass Details

Date: 03 February 2023
Orbit: 502 x 570 km, 97.5° (Epoch: 23 March)

Event Time Altitude Azimuth Distance (km) Brightness Sun altitude
Exits shadow 19:22:23 34° 347° (NNW) 929 4.0 -24.8°
Drops below altitude 10° 19:24:43 10° 347° (NNW) 1,854 5.7 -25.2°
Sets 19:27:01 0° 348° (NNW) 2,822 6.7 -25.6°
